Regional Weather Roundup
Issued by NWS Sioux Falls, SD

Home | Current Version | Previous Version | Graphics & Text | Print | Product List | Glossary Off
Versions: 1 2 3 4 5 6 7 8 9 10 11 12 13 14 15 16 17 18 19 20 21 22 23 24 25 26 27 28 29 30 31 32 33 34 35 36 37 38 39 40 41 42 43 44 45 46 47 48 49 50

000
ASUS43 KFSD 240110
RWRFSD

WEATHER ROUNDUP FOR SE SOUTH DAKOTA/SW MINNESOTA/NW IOWA
NATIONAL WEATHER SERVICE SIOUX FALLS SD
800 PM CDT THU MAR 23 2017

NOTE: "FAIR" INDICATES FEW OR NO CLOUDS BELOW 12,000 FEET WITH NO
SIGNIFICANT WEATHER AND OR OBSTRUCTIONS TO VISIBILITY.


SDZ038>040-050-052>070-240200-
SOUTHEAST SOUTH DAKOTA

CITY           SKY/WX    TMP DP  RH WIND       PRES   REMARKS
CHAMBERLAIN    MOCLDY    48  47  97 NE6       29.69R
HURON          CLOUDY    43  43 100 NE7       29.72R FOG
MADISON        CLOUDY    39  39 100 E7        29.69R
MITCHELL       CLOUDY    49  46  90 N5        29.70R
SIOUX FALLS    LGT RAIN  47  41  80 E5        29.69R
WINNER         FAIR      54  46  74 E9        29.67R
YANKTON        CLOUDY    54  48  82 NE6       29.64S
$$

MNZ071-072-080-081-089-090-097-098-240200-
SOUTHWEST MINNESOTA

CITY           SKY/WX    TMP DP  RH WIND       PRES   REMARKS
FAIRMONT       CLOUDY    40  35  83 E16       29.75F
JACKSON        CLOUDY    39  34  81 E12       29.74S
LUVERNE        CLOUDY    43  36  75 E6        29.70R
MARSHALL       CLOUDY    38  36  92 E8        29.75R
MONTEVIDEO     CLOUDY    36  36 100 SE9       29.78S FOG
PIPESTONE      DRIZZLE   43  36  75 E8        29.70R
REDWOOD FALLS  CLOUDY    39  34  82 E12       29.76F
TRACY          CLOUDY    39  37  91 E6        29.74F
WINDOM         PTCLDY    43  36  75 E8        29.72F
WORTHINGTON    CLOUDY    41  36  82 SE14      29.71F
$$

IAZ001>003-012>014-020>022-031-032-NEZ013-014-SDZ071-240200-
NORTHWEST IOWA

CITY           SKY/WX    TMP DP  RH WIND       PRES   REMARKS
CHEROKEE       CLOUDY    50  40  69 SE10      29.69R
DENISON        CLOUDY    59  43  55 SE12G20   29.66F
ESTHERVILLE    MOCLDY    39  36  89 E13       29.73F
LE MARS        MOCLDY    57  43  58 VRB5G16   29.67S
ORANGE CITY    CLOUDY    54  45  71 SE5       29.69R
SHELDON        CLOUDY    50  50 100 SE9       29.67S
SIOUX CITY     CLOUDY    58  44  60 SE9       29.65R
SPENCER        MOCLDY    48  40  73 SE12      29.72S
STORM LAKE     PTCLDY    48  39  71 SE17      29.69F
$$

ABBREVIATIONS USED IN REMARKS
   TC - TEMPERATURE IN CELSIUS
  WCI - WIND CHILL INDEX
   HX - HEAT INDEX
  VSB - VISIBILITY





USA.gov is the U.S. government's official web portal to all federal, state and local government web resources and services.